sat.trackr.live / text

‹ back to catalog

KINEIS-3A

NORAD 61223 · 2024-172D

PAYLOAD ACTIVE UNKNOWN

§ Identity

Operator
Country
FR
Launch date
2024-09-20
Launch site
RLLB
Launch vehicle
Mass (kg)
RCS (m²)

External: N2YO · Heavens-Above · Gunter

§ Orbital elements

Epoch: 2026-09-22T11:43:44.509440Z

Period
97.80 min
Inclination
98.0400°
Eccentricity
0.0003039
Mean motion
14.72345649 rev/d
Perigee alt
651.5 km
Apogee alt
655.7 km
Semi-major
7,031.7 km
B*
1.9480e-4
RAAN
354.4247°
Arg perigee
123.8459°
Mean anomaly
236.3038°
Rev number
10,709

§ Raw data

KINEIS-3A1 61223U 24172D   26265.48870960  .00001183  00000+0  19480-3 0  99902 61223  98.0400 354.4247 0003039 123.8459 236.3038 14.72345649107090

JSON: /api/v1/satellites/61223 · /tle

For live sub-satellite position, see the globe view (requires WebGL).

§ Visibility from observer

Set your observer location to see the next 7 days of passes ≥ 10°. The values pass through the URL so the page stays shareable.

No JS? Fill the form by hand. The geolocation button needs JavaScript.

§ Radio — SatNOGS DB

ModeDescriptionDownlinkUplink
BPSK S-band telemetry 2.265 GHz
FM Telemetry 400.662 MHz

2 transmitters · refreshed weekly from db.satnogs.org